Terminal Aerodrome Forecast
Issued by NWS

Home | Current Version | Previous Version | Text Only | Print | Product List | Glossary On
Versions: 1 2 3 4 5 6 7 8 9 10 11 12 13 14
000
FTUS42 TJSJ 270530
TAFISX
TAF
TISX 270530Z 2706/2806 14005KT P6SM FEW020
     FM271400 16011KT P6SM FEW020
     FM272300 09005KT P6SM FEW020=

USA.gov is the U.S. government's official web portal to all federal, state and local government web resources and services.